Time,TemperatureF,DewpointF,PressureIn,WindDirection,WindDirectionDegrees,WindSpeedMPH,WindSpeedGustMPH,Humidity,HourlyPrecipIn,Conditions,Clouds,dailyrainin,SolarRadiationWatts/m^2,SoftwareType,DateUTC
2013-05-15 00:00:00,51.2,33.7,30.05,NW,314,0.0,0.0,51,0.00,,,0.00,0,Wunderground v.1.15,2013-05-15 07:00:00,
2013-05-15 00:10:00,51.0,34.9,30.05,WNW,299,0.0,0.0,54,0.00,,,0.00,0,Wunderground v.1.15,2013-05-15 07:10:00,
2013-05-15 00:15:00,50.9,35.3,30.05,WNW,295,0.0,0.0,55,0.00,,,0.00,0,Wunderground v.1.15,2013-05-15 07:15:00,
2013-05-15 00:20:00,50.8,35.7,30.05,WNW,297,0.0,0.0,56,0.00,,,0.00,0,Wunderground v.1.15,2013-05-15 07:20:00,
2013-05-15 00:25:00,50.6,35.5,30.05,WNW,297,0.0,0.0,56,0.00,,,0.00,0,Wunderground v.1.15,2013-05-15 07:25:00,
2013-05-15 00:30:00,50.4,35.7,30.04,WNW,297,0.0,0.0,57,0.00,,,0.00,0,Wunderground v.1.15,2013-05-15 07:30:00,
2013-05-15 00:35:00,50.1,35.9,30.04,WNW,298,0.0,0.0,58,0.00,,,0.00,0,Wunderground v.1.15,2013-05-15 07:35:00,
2013-05-15 00:44:00,49.9,36.1,30.04,WNW,298,0.0,0.0,59,0.00,,,0.00,0,Wunderground v.1.15,2013-05-15 07:44:00,
2013-05-15 00:50:00,49.7,36.4,30.04,WNW,298,0.0,0.0,60,0.00,,,0.00,0,Wunderground v.1.15,2013-05-15 07:50:00,
2013-05-15 00:55:00,49.5,36.6,30.04,WNW,298,0.0,0.0,61,0.00,,,0.00,0,Wunderground v.1.15,2013-05-15 07:55:00,
2013-05-15 01:00:00,49.2,36.3,30.04,NW,325,0.0,0.0,61,0.00,,,0.00,0,Wunderground v.1.15,2013-05-15 08:00:00,
2013-05-15 01:10:00,49.1,36.6,30.04,NNW,340,0.0,0.0,62,0.00,,,0.00,0,Wunderground v.1.15,2013-05-15 08:10:00,
2013-05-15 01:20:00,48.8,36.4,30.04,NNW,340,0.0,0.0,62,0.00,,,0.00,0,Wunderground v.1.15,2013-05-15 08:20:00,
2013-05-15 01:25:00,48.7,36.3,30.04,NNW,340,0.0,0.0,62,0.00,,,0.00,0,Wunderground v.1.15,2013-05-15 08:25:00,
2013-05-15 01:30:00,48.6,36.6,30.04,NNW,340,0.0,0.0,63,0.00,,,0.00,0,Wunderground v.1.15,2013-05-15 08:30:00,
2013-05-15 01:40:00,48.2,36.2,30.03,NNW,340,0.0,0.0,63,0.00,,,0.00,0,Wunderground v.1.15,2013-05-15 08:40:00,
2013-05-15 01:45:00,48.1,36.5,30.03,NNW,340,0.0,0.0,64,0.00,,,0.00,0,Wunderground v.1.15,2013-05-15 08:45:00,
2013-05-15 01:55:00,47.8,36.2,30.03,NNW,340,0.0,0.0,64,0.00,,,0.00,0,Wunderground v.1.15,2013-05-15 08:55:00,
2013-05-15 02:00:00,47.6,36.0,30.03,NNW,340,0.0,0.0,64,0.00,,,0.00,0,Wunderground v.1.15,2013-05-15 09:00:00,
2013-05-15 02:10:00,47.0,35.8,30.03,NNW,340,0.0,0.0,65,0.00,,,0.00,0,Wunderground v.1.15,2013-05-15 09:10:00,
2013-05-15 02:15:00,46.7,35.9,30.03,NNW,340,0.0,0.0,66,0.00,,,0.00,0,Wunderground v.1.15,2013-05-15 09:15:00,
2013-05-15 02:25:00,45.9,35.6,30.03,NNW,340,0.0,0.0,67,0.00,,,0.00,0,Wunderground v.1.15,2013-05-15 09:25:00,
2013-05-15 02:35:00,45.4,35.5,30.03,NNW,340,0.0,0.0,68,0.00,,,0.00,0,Wunderground v.1.15,2013-05-15 09:35:00,
2013-05-15 02:40:00,45.3,35.4,30.03,NNW,340,0.0,0.0,68,0.00,,,0.00,0,Wunderground v.1.15,2013-05-15 09:40:00,
2013-05-15 02:45:00,45.2,35.3,30.03,NNW,340,0.0,0.0,68,0.00,,,0.00,0,Wunderground v.1.15,2013-05-15 09:45:00,
2013-05-15 02:50:00,45.0,35.1,30.03,NNW,340,0.0,0.0,68,0.00,,,0.00,0,Wunderground v.1.15,2013-05-15 09:50:00,
2013-05-15 03:00:00,44.7,34.8,30.04,NNW,340,0.0,0.0,68,0.00,,,0.00,0,Wunderground v.1.15,2013-05-15 10:00:00,
2013-05-15 03:10:00,44.2,34.3,30.03,NNW,340,0.0,0.0,68,0.00,,,0.00,0,Wunderground v.1.15,2013-05-15 10:10:00,
2013-05-15 03:15:00,44.0,34.5,30.04,NNW,340,0.0,0.0,69,0.00,,,0.00,0,Wunderground v.1.15,2013-05-15 10:15:00,
2013-05-15 03:25:00,43.9,34.7,30.03,NNW,340,0.0,0.0,70,0.00,,,0.00,0,Wunderground v.1.15,2013-05-15 10:25:00,
2013-05-15 03:30:00,44.0,34.8,30.03,NNW,340,0.0,0.0,70,0.00,,,0.00,0,Wunderground v.1.15,2013-05-15 10:30:00,
2013-05-15 03:35:00,44.5,35.0,30.03,NNW,340,0.0,0.0,69,0.00,,,0.00,0,Wunderground v.1.15,2013-05-15 10:35:00,
2013-05-15 03:40:00,44.8,35.2,30.03,NNW,340,0.0,0.0,69,0.00,,,0.00,0,Wunderground v.1.15,2013-05-15 10:40:00,
2013-05-15 03:45:00,45.0,35.1,30.03,NNW,340,0.0,0.0,68,0.00,,,0.00,0,Wunderground v.1.15,2013-05-15 10:45:00,
2013-05-15 03:50:00,45.0,35.1,30.02,NNW,340,0.0,0.0,68,0.00,,,0.00,0,Wunderground v.1.15,2013-05-15 10:50:00,
2013-05-15 03:55:00,45.1,35.2,30.03,NNW,340,0.0,0.0,68,0.00,,,0.00,0,Wunderground v.1.15,2013-05-15 10:55:00,
2013-05-15 04:00:00,45.1,35.2,30.03,NNW,340,0.0,0.0,68,0.00,,,0.00,0,Wunderground v.1.15,2013-05-15 11:00:00,
2013-05-15 04:10:00,45.0,34.7,30.03,NNW,340,0.0,0.0,67,0.00,,,0.00,0,Wunderground v.1.15,2013-05-15 11:10:00,
2013-05-15 04:20:00,44.7,34.8,30.03,NNW,340,0.0,0.0,68,0.00,,,0.00,0,Wunderground v.1.15,2013-05-15 11:20:00,
2013-05-15 04:25:00,44.5,34.6,30.03,NNW,340,0.0,0.0,68,0.00,,,0.00,0,Wunderground v.1.15,2013-05-15 11:25:00,
2013-05-15 04:30:00,44.2,34.7,30.03,NNW,340,0.0,0.0,69,0.00,,,0.00,0,Wunderground v.1.15,2013-05-15 11:30:00,
2013-05-15 04:35:00,43.9,34.7,30.03,NNW,340,0.0,0.0,70,0.00,,,0.00,0,Wunderground v.1.15,2013-05-15 11:35:00,
2013-05-15 04:40:00,43.8,34.6,30.03,NNW,340,0.0,0.0,70,0.00,,,0.00,0,Wunderground v.1.15,2013-05-15 11:40:00,
2013-05-15 04:50:00,43.4,34.6,30.03,NNW,340,0.0,0.0,71,0.00,,,0.00,0,Wunderground v.1.15,2013-05-15 11:50:00,
2013-05-15 04:55:00,43.2,34.4,30.03,NNW,340,0.0,0.0,71,0.00,,,0.00,0,Wunderground v.1.15,2013-05-15 11:55:00,
2013-05-15 05:00:00,42.9,34.5,30.03,NNW,339,0.0,0.0,72,0.00,,,0.00,0,Wunderground v.1.15,2013-05-15 12:00:00,
2013-05-15 05:10:00,42.4,34.7,30.02,NNW,339,0.0,0.0,74,0.00,,,0.00,0,Wunderground v.1.15,2013-05-15 12:10:00,
2013-05-15 05:15:00,42.3,34.6,30.02,NNW,339,0.0,0.0,74,0.00,,,0.00,0,Wunderground v.1.15,2013-05-15 12:15:00,
2013-05-15 05:20:00,42.2,34.5,30.03,NNW,339,0.0,0.0,74,0.00,,,0.00,0,Wunderground v.1.15,2013-05-15 12:20:00,
2013-05-15 05:30:00,41.9,34.9,30.02,NNW,339,0.0,0.0,76,0.00,,,0.00,0,Wunderground v.1.15,2013-05-15 12:30:00,
2013-05-15 05:45:00,41.7,34.4,30.02,NNW,340,0.0,0.0,75,0.00,,,0.00,0,Wunderground v.1.15,2013-05-15 12:45:00,
2013-05-15 05:50:00,41.5,33.8,30.03,NNW,340,0.0,0.0,74,0.00,,,0.00,7,Wunderground v.1.15,2013-05-15 12:50:00,
2013-05-15 06:00:00,41.0,34.0,30.03,NNW,339,0.0,0.0,76,0.00,,,0.00,18,Wunderground v.1.15,2013-05-15 13:00:00,
2013-05-15 06:10:00,40.6,34.3,30.03,NNW,339,0.0,0.0,78,0.00,,,0.00,21,Wunderground v.1.15,2013-05-15 13:10:00,
2013-05-15 06:15:00,40.5,34.2,30.03,NNW,339,0.0,0.0,78,0.00,,,0.00,26,Wunderground v.1.15,2013-05-15 13:15:00,
2013-05-15 06:20:00,40.6,34.3,30.04,NNW,339,0.0,0.0,78,0.00,,,0.00,28,Wunderground v.1.15,2013-05-15 13:20:00,
2013-05-15 06:30:00,40.7,34.7,30.03,NNW,339,0.0,0.0,79,0.00,,,0.00,23,Wunderground v.1.15,2013-05-15 13:30:00,
2013-05-15 06:35:00,40.7,35.0,30.03,NNW,339,0.0,0.0,80,0.00,,,0.00,33,Wunderground v.1.15,2013-05-15 13:35:00,
2013-05-15 06:40:00,40.8,35.1,30.03,NNW,339,0.0,0.0,80,0.00,,,0.00,54,Wunderground v.1.15,2013-05-15 13:40:00,
2013-05-15 06:50:00,41.1,35.7,30.03,NNW,340,0.0,0.0,81,0.00,,,0.00,113,Wunderground v.1.15,2013-05-15 13:50:00,
2013-05-15 06:55:00,41.5,36.1,30.03,NNW,340,0.0,0.0,81,0.00,,,0.00,109,Wunderground v.1.15,2013-05-15 13:55:00,
2013-05-15 07:05:00,42.5,36.8,30.03,NNW,341,0.0,0.0,80,0.00,,,0.00,130,Wunderground v.1.15,2013-05-15 14:05:00,
2013-05-15 07:15:00,43.7,37.0,30.03,North,355,0.0,0.0,77,0.00,,,0.00,120,Wunderground v.1.15,2013-05-15 14:15:00,
2013-05-15 07:20:00,44.2,36.8,30.02,North,355,0.0,0.0,75,0.00,,,0.00,120,Wunderground v.1.15,2013-05-15 14:20:00,
2013-05-15 07:30:00,45.1,37.0,30.02,North,355,0.0,0.0,73,0.00,,,0.00,167,Wunderground v.1.15,2013-05-15 14:30:00,
2013-05-15 07:35:00,45.6,37.1,30.02,North,355,0.0,0.0,72,0.00,,,0.00,193,Wunderground v.1.15,2013-05-15 14:35:00,
2013-05-15 07:40:00,46.1,37.2,30.02,North,360,0.0,0.0,71,0.00,,,0.00,221,Wunderground v.1.15,2013-05-15 14:40:00,
2013-05-15 07:45:00,46.7,37.4,30.03,SSE,149,0.0,0.0,70,0.00,,,0.00,178,Wunderground v.1.15,2013-05-15 14:45:00,
2013-05-15 07:50:00,47.2,37.5,30.03,South,175,0.0,0.0,69,0.00,,,0.00,181,Wunderground v.1.15,2013-05-15 14:50:00,
2013-05-15 08:00:00,47.8,37.7,30.02,South,176,0.0,0.0,68,0.00,,,0.00,199,Wunderground v.1.15,2013-05-15 15:00:00,
2013-05-15 08:10:00,48.6,37.7,30.02,South,173,0.0,0.0,66,0.00,,,0.00,267,Wunderground v.1.15,2013-05-15 15:10:00,
2013-05-15 08:15:00,49.1,37.8,30.02,South,173,0.0,0.0,65,0.00,,,0.00,260,Wunderground v.1.15,2013-05-15 15:15:00,
2013-05-15 08:20:00,49.6,36.7,30.02,SSE,150,0.0,0.0,61,0.00,,,0.00,258,Wunderground v.1.15,2013-05-15 15:20:00,
2013-05-15 08:25:00,49.9,37.0,30.02,SSE,149,0.0,0.0,61,0.00,,,0.00,214,Wunderground v.1.15,2013-05-15 15:25:00,
2013-05-15 08:35:00,51.1,37.3,30.01,SE,145,0.0,0.0,59,0.00,,,0.00,436,Wunderground v.1.15,2013-05-15 15:35:00,
2013-05-15 08:40:00,52.1,37.3,30.01,SE,138,0.0,0.0,57,0.00,,,0.00,339,Wunderground v.1.15,2013-05-15 15:40:00,
2013-05-15 08:45:00,53.0,37.7,30.01,SE,141,0.0,0.0,56,0.00,,,0.00,492,Wunderground v.1.15,2013-05-15 15:45:00,
2013-05-15 08:55:00,54.7,37.4,30.01,SSE,166,0.0,0.0,52,0.00,,,0.00,545,Wunderground v.1.15,2013-05-15 15:55:00,
2013-05-15 09:05:00,55.2,37.4,30.01,South,186,1.0,1.0,51,0.00,,,0.00,561,Wunderground v.1.15,2013-05-15 16:05:00,
2013-05-15 09:10:00,54.6,36.3,30.01,South,186,1.0,1.0,50,0.00,,,0.00,543,Wunderground v.1.15,2013-05-15 16:10:00,
2013-05-15 09:20:00,55.3,37.0,30.01,SSE,168,1.0,1.0,50,0.00,,,0.00,594,Wunderground v.1.15,2013-05-15 16:20:00,
2013-05-15 09:30:00,56.2,36.8,30.00,South,180,0.0,0.0,48,0.00,,,0.00,613,Wunderground v.1.15,2013-05-15 16:30:00,
2013-05-15 09:40:00,56.1,36.1,30.00,SSW,192,0.0,0.0,47,0.00,,,0.00,640,Wunderground v.1.15,2013-05-15 16:40:00,
2013-05-15 09:50:00,57.7,37.0,30.00,South,190,0.0,0.0,46,0.00,,,0.00,663,Wunderground v.1.15,2013-05-15 16:50:00,
2013-05-15 09:55:00,58.8,37.5,30.00,South,190,0.0,0.0,45,0.00,,,0.00,675,Wunderground v.1.15,2013-05-15 16:55:00,
2013-05-15 10:05:00,59.0,36.5,29.99,South,174,0.0,0.0,43,0.00,,,0.00,700,Wunderground v.1.15,2013-05-15 17:05:00,
2013-05-15 10:15:00,60.2,37.0,29.99,SSE,168,0.0,0.0,42,0.00,,,0.00,722,Wunderground v.1.15,2013-05-15 17:15:00,
2013-05-15 10:25:00,62.3,36.4,29.98,SSE,163,0.0,0.0,38,0.00,,,0.00,745,Wunderground v.1.15,2013-05-15 17:25:00,
2013-05-15 10:30:00,63.0,37.6,29.98,SSE,167,0.0,0.0,39,0.00,,,0.00,759,Wunderground v.1.15,2013-05-15 17:30:00,
2013-05-15 10:40:00,61.8,36.6,29.98,WNW,301,0.0,0.0,39,0.00,,,0.00,784,Wunderground v.1.15,2013-05-15 17:40:00,
2013-05-15 10:45:00,61.5,37.6,29.98,WNW,302,0.0,0.0,41,0.00,,,0.00,795,Wunderground v.1.15,2013-05-15 17:45:00,
2013-05-15 10:50:00,61.6,37.7,29.98,NNW,344,1.0,1.0,41,0.00,,,0.00,805,Wunderground v.1.15,2013-05-15 17:50:00,
2013-05-15 10:55:00,60.9,37.6,29.98,NNE,23,2.0,2.0,42,0.00,,,0.00,831,Wunderground v.1.15,2013-05-15 17:55:00,
2013-05-15 11:00:00,62.1,38.1,29.97,WNW,282,1.0,1.0,41,0.00,,,0.00,659,Wunderground v.1.15,2013-05-15 18:00:00,
2013-05-15 11:10:00,62.0,37.4,29.97,NE,46,3.0,4.0,40,0.00,,,0.00,548,Wunderground v.1.15,2013-05-15 18:10:00,
2013-05-15 11:20:00,62.5,37.8,29.97,North,350,2.0,2.0,40,0.00,,,0.00,1020,Wunderground v.1.15,2013-05-15 18:20:00,
2013-05-15 11:30:00,63.4,38.0,29.97,NNE,26,1.0,1.0,39,0.00,,,0.00,684,Wunderground v.1.15,2013-05-15 18:30:00,
2013-05-15 11:35:00,64.1,38.6,29.96,NNE,27,1.0,7.0,39,0.00,,,0.00,496,Wunderground v.1.15,2013-05-15 18:35:00,
2013-05-15 11:40:00,63.4,38.0,29.97,North,9,3.0,3.0,39,0.00,,,0.00,353,Wunderground v.1.15,2013-05-15 18:40:00,
2013-05-15 11:45:00,62.6,38.6,29.96,NNW,337,3.0,3.0,41,0.00,,,0.00,348,Wunderground v.1.15,2013-05-15 18:45:00,
2013-05-15 11:55:00,61.9,39.1,29.96,North,350,3.0,7.0,43,0.00,,,0.00,264,Wunderground v.1.15,2013-05-15 18:55:00,
2013-05-15 12:00:00,61.7,39.6,29.96,NNE,14,3.0,5.0,44,0.00,,,0.00,318,Wunderground v.1.15,2013-05-15 19:00:00,
2013-05-15 12:10:00,61.2,39.1,29.96,NNW,331,5.0,5.0,44,0.00,,,0.00,394,Wunderground v.1.15,2013-05-15 19:10:00,
2013-05-15 12:15:00,61.3,38.6,29.96,NNW,335,4.0,5.0,43,0.00,,,0.00,373,Wunderground v.1.15,2013-05-15 19:15:00,
2013-05-15 12:20:00,61.3,37.4,29.97,NNW,343,3.0,5.0,41,0.00,,,0.00,401,Wunderground v.1.15,2013-05-15 19:20:00,
2013-05-15 12:30:00,60.7,36.8,29.97,NNE,13,5.0,8.0,41,0.00,,,0.00,355,Wunderground v.1.15,2013-05-15 19:30:00,
2013-05-15 12:35:00,60.8,37.5,29.96,NNE,12,3.0,8.0,42,0.00,,,0.00,424,Wunderground v.1.15,2013-05-15 19:35:00,
2013-05-15 12:45:00,61.0,37.7,29.96,NNE,29,5.0,5.0,42,0.00,,,0.00,436,Wunderground v.1.15,2013-05-15 19:45:00,
2013-05-15 12:50:00,61.1,38.4,29.96,North,360,3.0,3.0,43,0.00,,,0.00,343,Wunderground v.1.15,2013-05-15 19:50:00,
2013-05-15 12:55:00,61.2,37.9,29.95,North,360,2.0,11.0,42,0.00,,,0.00,385,Wunderground v.1.15,2013-05-15 19:55:00,
2013-05-15 13:00:00,61.1,37.8,29.94,North,5,5.0,7.0,42,0.00,,,0.00,380,Wunderground v.1.15,2013-05-15 20:00:00,
2013-05-15 13:10:00,60.9,38.8,29.95,NNW,336,8.0,8.0,44,0.00,,,0.00,359,Wunderground v.1.15,2013-05-15 20:10:00,
2013-05-15 13:20:00,60.8,38.7,29.95,North,350,3.0,3.0,44,0.00,,,0.00,374,Wunderground v.1.15,2013-05-15 20:20:00,
2013-05-15 13:25:00,60.5,38.5,29.95,North,355,3.0,3.0,44,0.00,,,0.00,309,Wunderground v.1.15,2013-05-15 20:25:00,
2013-05-15 13:30:00,60.2,38.2,29.96,NNW,347,6.0,6.0,44,0.00,,,0.00,227,Wunderground v.1.15,2013-05-15 20:30:00,
2013-05-15 13:40:00,60.0,38.6,29.96,North,351,2.0,4.0,45,0.00,,,0.00,262,Wunderground v.1.15,2013-05-15 20:40:00,
2013-05-15 13:50:00,60.0,41.8,29.96,NNW,327,7.0,7.0,51,0.00,,,0.00,448,Wunderground v.1.15,2013-05-15 20:50:00,
2013-05-15 14:00:00,60.0,39.7,29.96,NNW,330,3.0,12.0,47,0.00,,,0.00,218,Wunderground v.1.15,2013-05-15 21:00:00,
2013-05-15 14:10:00,59.5,42.3,29.95,NNW,342,2.0,10.0,53,0.00,,,0.00,371,Wunderground v.1.15,2013-05-15 21:10:00,
2013-05-15 14:20:00,58.7,44.0,29.96,NW,315,5.0,7.0,58,0.00,,,0.00,671,Wunderground v.1.15,2013-05-15 21:20:00,
2013-05-15 14:25:00,59.1,43.4,29.96,NNW,333,3.0,7.0,56,0.00,,,0.00,1018,Wunderground v.1.15,2013-05-15 21:25:00,
2013-05-15 14:35:00,60.9,42.6,29.95,NNW,339,4.0,7.0,51,0.00,,,0.00,921,Wunderground v.1.15,2013-05-15 21:35:00,
2013-05-15 14:45:00,61.6,42.8,29.96,WNW,303,5.0,8.0,50,0.00,,,0.00,561,Wunderground v.1.15,2013-05-15 21:45:00,
2013-05-15 14:50:00,61.2,42.4,29.96,NW,306,6.0,6.0,50,0.00,,,0.00,529,Wunderground v.1.15,2013-05-15 21:50:00,
2013-05-15 14:55:00,60.9,42.6,29.96,WSW,254,7.0,7.0,51,0.00,,,0.00,476,Wunderground v.1.15,2013-05-15 21:55:00,
2013-05-15 15:05:00,61.1,42.8,29.95,NW,325,4.0,5.0,51,0.00,,,0.00,332,Wunderground v.1.15,2013-05-15 22:05:00,
2013-05-15 15:15:00,61.3,43.0,29.96,NNW,329,1.0,5.0,51,0.00,,,0.00,301,Wunderground v.1.15,2013-05-15 22:15:00,
2013-05-15 15:20:00,61.2,42.9,29.95,NNE,18,1.0,3.0,51,0.00,,,0.00,192,Wunderground v.1.15,2013-05-15 22:20:00,
2013-05-15 15:30:00,60.4,42.2,29.96,NW,323,3.0,9.0,51,0.00,,,0.00,155,Wunderground v.1.15,2013-05-15 22:30:00,
2013-05-15 15:35:00,59.9,43.7,29.96,NW,324,4.0,9.0,55,0.00,,,0.00,304,Wunderground v.1.15,2013-05-15 22:35:00,
2013-05-15 15:40:00,59.8,44.5,29.96,NNE,13,4.0,9.0,57,0.00,,,0.00,308,Wunderground v.1.15,2013-05-15 22:40:00,
2013-05-15 15:50:00,59.0,42.8,29.96,NNE,17,7.0,7.0,55,0.00,,,0.00,248,Wunderground v.1.15,2013-05-15 22:50:00,
2013-05-15 15:55:00,58.9,42.8,29.96,North,360,4.0,7.0,55,0.00,,,0.00,244,Wunderground v.1.15,2013-05-15 22:55:00,
2013-05-15 16:00:00,59.2,42.6,29.96,North,351,2.0,10.0,54,0.00,,,0.00,241,Wunderground v.1.15,2013-05-15 23:00:00,
2013-05-15 16:10:00,58.8,43.1,29.96,NW,320,6.0,7.0,56,0.00,,,0.00,123,Wunderground v.1.15,2013-05-15 23:10:00,
2013-05-15 16:20:00,57.5,45.8,29.97,NNW,336,6.0,6.0,65,0.00,,,0.00,107,Wunderground v.1.15,2013-05-15 23:20:00,
2013-05-15 16:25:00,56.8,46.0,29.97,NW,320,2.0,6.0,67,0.00,,,0.00,167,Wunderground v.1.15,2013-05-15 23:25:00,
2013-05-15 16:35:00,56.2,46.9,29.96,NNW,341,0.0,0.0,71,0.00,,,0.00,181,Wunderground v.1.15,2013-05-15 23:35:00,
2013-05-15 16:40:00,56.0,46.4,29.96,NNW,330,0.0,0.0,70,0.00,,,0.00,114,Wunderground v.1.15,2013-05-15 23:40:00,
2013-05-15 16:50:00,56.0,47.5,29.96,North,5,0.0,0.0,73,0.00,,,0.00,292,Wunderground v.1.15,2013-05-15 23:50:00,
2013-05-15 16:55:00,56.0,47.8,29.96,NNW,344,0.0,0.0,74,0.00,,,0.00,179,Wunderground v.1.15,2013-05-15 23:55:00,
2013-05-15 17:00:00,55.9,48.1,29.96,North,10,0.0,0.0,75,0.00,,,0.00,153,Wunderground v.1.15,2013-05-16 00:00:00,
2013-05-15 17:10:00,55.8,48.0,29.96,North,350,0.0,0.0,75,0.00,,,0.01,111,Wunderground v.1.15,2013-05-16 00:10:00,
2013-05-15 17:20:00,55.6,47.4,29.96,NNE,14,0.0,0.0,74,0.00,,,0.01,100,Wunderground v.1.15,2013-05-16 00:20:00,
2013-05-15 17:25:00,55.5,47.3,29.96,NNE,13,0.0,0.0,74,0.00,,,0.01,113,Wunderground v.1.15,2013-05-16 00:25:00,
2013-05-15 17:30:00,55.4,47.2,29.96,North,9,0.0,0.0,74,0.00,,,0.01,113,Wunderground v.1.15,2013-05-16 00:30:00,
2013-05-15 17:35:00,55.5,47.3,29.96,North,5,0.0,0.0,74,0.00,,,0.01,90,Wunderground v.1.15,2013-05-16 00:35:00,
2013-05-15 17:40:00,55.5,47.0,29.96,North,11,0.0,0.0,73,0.00,,,0.01,98,Wunderground v.1.15,2013-05-16 00:40:00,
2013-05-15 17:50:00,55.6,46.7,29.96,North,351,0.0,0.0,72,0.00,,,0.01,97,Wunderground v.1.15,2013-05-16 00:50:00,
2013-05-15 18:00:00,55.9,43.9,29.96,West,263,4.0,7.0,64,0.00,,,0.01,72,Wunderground v.1.15,2013-05-16 01:00:00,
2013-05-15 18:10:00,56.0,43.6,29.96,West,265,8.0,8.0,63,0.00,,,0.01,79,Wunderground v.1.15,2013-05-16 01:10:00,
2013-05-15 18:15:00,56.0,43.6,29.96,WSW,253,6.0,8.0,63,0.00,,,0.01,76,Wunderground v.1.15,2013-05-16 01:15:00,
2013-05-15 18:25:00,56.0,43.2,29.95,WNW,286,6.0,9.0,62,0.00,,,0.01,105,Wunderground v.1.15,2013-05-16 01:25:00,
2013-05-15 18:30:00,55.9,43.1,29.95,WSW,257,9.0,9.0,62,0.00,,,0.01,74,Wunderground v.1.15,2013-05-16 01:30:00,
2013-05-15 18:39:00,55.5,43.1,29.95,WSW,252,7.0,7.0,63,0.00,,,0.01,91,Wunderground v.1.15,2013-05-16 01:39:00,
2013-05-15 18:45:00,55.4,42.6,29.96,West,278,3.0,7.0,62,0.00,,,0.01,158,Wunderground v.1.15,2013-05-16 01:45:00,
2013-05-15 18:50:00,55.4,43.0,29.96,West,277,2.0,10.0,63,0.00,,,0.01,178,Wunderground v.1.15,2013-05-16 01:50:00,
2013-05-15 19:00:00,56.0,43.2,29.96,WSW,240,1.0,9.0,62,0.00,,,0.01,114,Wunderground v.1.15,2013-05-16 02:00:00,
2013-05-15 19:10:00,56.0,42.7,29.96,WNW,284,4.0,5.0,61,0.00,,,0.01,105,Wunderground v.1.15,2013-05-16 02:10:00,
2013-05-15 19:20:00,55.7,42.9,29.96,WSW,248,8.0,12.0,62,0.00,,,0.01,93,Wunderground v.1.15,2013-05-16 02:20:00,
2013-05-15 19:25:00,55.7,42.9,29.96,WSW,254,10.0,18.0,62,0.00,,,0.01,146,Wunderground v.1.15,2013-05-16 02:25:00,
2013-05-15 19:40:00,55.3,42.5,29.97,WSW,239,14.0,14.0,62,0.00,,,0.01,98,Wunderground v.1.15,2013-05-16 02:40:00,
2013-05-15 19:45:00,54.9,42.5,29.97,SW,229,13.0,14.0,63,0.00,,,0.01,83,Wunderground v.1.15,2013-05-16 02:45:00,
2013-05-15 19:50:00,54.5,42.6,29.97,SW,234,12.0,15.0,64,0.00,,,0.01,70,Wunderground v.1.15,2013-05-16 02:50:00,
2013-05-15 20:00:00,53.1,42.4,29.97,WSW,248,12.0,13.0,67,0.00,,,0.01,23,Wunderground v.1.15,2013-05-16 03:00:00,
2013-05-15 20:10:00,52.1,42.2,29.97,SW,216,10.0,10.0,69,0.00,,,0.01,19,Wunderground v.1.15,2013-05-16 03:10:00,
2013-05-15 20:15:00,51.7,42.2,29.97,SW,216,9.0,10.0,70,0.00,,,0.01,11,Wunderground v.1.15,2013-05-16 03:15:00,
2013-05-15 20:20:00,51.4,42.3,29.97,SW,226,10.0,11.0,71,0.00,,,0.01,7,Wunderground v.1.15,2013-05-16 03:20:00,
2013-05-15 20:30:00,50.8,42.1,29.97,SW,232,12.0,14.0,72,0.00,,,0.01,0,Wunderground v.1.15,2013-05-16 03:30:00,
2013-05-15 20:40:00,50.5,42.2,29.98,WSW,251,10.0,10.0,73,0.00,,,0.01,0,Wunderground v.1.15,2013-05-16 03:40:00,
2013-05-15 20:50:00,50.2,41.9,29.97,SW,220,9.0,9.0,73,0.00,,,0.01,0,Wunderground v.1.15,2013-05-16 03:50:00,
2013-05-15 21:00:00,50.1,41.8,29.98,WSW,241,9.0,9.0,73,0.00,,,0.01,0,Wunderground v.1.15,2013-05-16 04:00:00,
2013-05-15 21:05:00,50.2,41.9,29.98,WSW,239,7.0,9.0,73,0.00,,,0.01,0,Wunderground v.1.15,2013-05-16 04:05:00,
2013-05-15 21:10:00,50.3,41.6,29.98,SW,216,7.0,8.0,72,0.00,,,0.01,0,Wunderground v.1.15,2013-05-16 04:10:00,
2013-05-15 21:15:00,50.4,41.7,29.99,SW,231,7.0,8.0,72,0.00,,,0.01,0,Wunderground v.1.15,2013-05-16 04:15:00,
2013-05-15 21:20:00,50.3,41.6,29.99,SW,229,6.0,6.0,72,0.00,,,0.01,0,Wunderground v.1.15,2013-05-16 04:20:00,
2013-05-15 21:25:00,50.3,41.6,29.99,WSW,238,4.0,6.0,72,0.00,,,0.01,0,Wunderground v.1.15,2013-05-16 04:25:00,
2013-05-15 21:30:00,50.1,41.4,29.99,WSW,238,2.0,2.0,72,0.00,,,0.01,0,Wunderground v.1.15,2013-05-16 04:30:00,
2013-05-15 21:35:00,50.1,41.4,29.99,WSW,238,0.0,2.0,72,0.00,,,0.01,0,Wunderground v.1.15,2013-05-16 04:35:00,
2013-05-15 21:40:00,50.0,41.3,29.99,WSW,238,0.0,0.0,72,0.00,,,0.01,0,Wunderground v.1.15,2013-05-16 04:40:00,
2013-05-15 21:50:00,49.7,41.0,29.99,WSW,238,0.0,0.0,72,0.00,,,0.01,0,Wunderground v.1.15,2013-05-16 04:50:00,
2013-05-15 22:00:00,50.0,41.0,29.99,SW,220,4.0,5.0,71,0.00,,,0.01,0,Wunderground v.1.15,2013-05-16 05:00:00,
2013-05-15 22:10:00,50.0,41.3,29.99,SW,223,6.0,8.0,72,0.00,,,0.01,0,Wunderground v.1.15,2013-05-16 05:10:00,
2013-05-15 22:15:00,49.8,41.1,29.99,SW,223,5.0,8.0,72,0.00,,,0.01,0,Wunderground v.1.15,2013-05-16 05:15:00,
2013-05-15 22:20:00,49.7,41.0,29.99,SW,234,4.0,5.0,72,0.00,,,0.01,0,Wunderground v.1.15,2013-05-16 05:20:00,
2013-05-15 22:30:00,49.7,41.4,30.00,SW,234,1.0,3.0,73,0.00,,,0.01,0,Wunderground v.1.15,2013-05-16 05:30:00,
2013-05-15 22:35:00,49.7,41.0,30.00,WSW,252,3.0,9.0,72,0.00,,,0.01,0,Wunderground v.1.15,2013-05-16 05:35:00,
2013-05-15 22:40:00,49.9,40.9,30.00,SW,223,7.0,9.0,71,0.00,,,0.01,0,Wunderground v.1.15,2013-05-16 05:40:00,
2013-05-15 22:50:00,49.9,40.9,30.00,WSW,240,7.0,7.0,71,0.00,,,0.01,0,Wunderground v.1.15,2013-05-16 05:50:00,
2013-05-15 22:55:00,50.0,41.0,30.00,WSW,257,6.0,7.0,71,0.00,,,0.01,0,Wunderground v.1.15,2013-05-16 05:55:00,
2013-05-15 23:00:00,49.9,40.9,29.99,WSW,243,5.0,5.0,71,0.00,,,0.01,0,Wunderground v.1.15,2013-05-16 06:00:00,
2013-05-15 23:10:00,49.9,40.9,29.99,SW,229,5.0,7.0,71,0.00,,,0.01,0,Wunderground v.1.15,2013-05-16 06:10:00,
2013-05-15 23:15:00,49.8,40.8,29.99,SW,232,3.0,7.0,71,0.00,,,0.01,0,Wunderground v.1.15,2013-05-16 06:15:00,
2013-05-15 23:20:00,49.7,41.0,29.99,SW,227,3.0,6.0,72,0.00,,,0.01,0,Wunderground v.1.15,2013-05-16 06:20:00,
2013-05-15 23:25:00,49.6,40.9,29.99,SW,222,6.0,9.0,72,0.00,,,0.01,0,Wunderground v.1.15,2013-05-16 06:25:00,
2013-05-15 23:30:00,49.5,40.8,29.99,SW,221,8.0,9.0,72,0.00,,,0.01,0,Wunderground v.1.15,2013-05-16 06:30:00,
2013-05-15 23:40:00,49.2,40.6,29.99,SW,227,7.0,7.0,72,0.00,,,0.01,0,Wunderground v.1.15,2013-05-16 06:40:00,
2013-05-15 23:50:00,49.1,40.5,29.99,SW,223,6.0,6.0,72,0.00,,,0.01,0,Wunderground v.1.15,2013-05-16 06:50:00,
2013-05-15 23:55:00,49.0,40.4,29.99,SW,223,5.0,6.0,72,0.00,,,0.01,0,Wunderground v.1.15,2013-05-16 06:55:00,